Regional Weather Roundup
Issued by NWS

Home | Current Version | Previous Version | Graphics & Text | Print | Product List | Glossary Off
Versions: 1 2 3 4 5 6 7 8 9 10 11 12 13 14 15 16 17 18 19 20 21 22 23 24 25 26 27

000
ASUS43 KDMX 211507
RWRIA

WEATHER ROUNDUP FOR IOWA
NATIONAL WEATHER SERVICE DES MOINES IA
1000 AM CDT MON APR 21 2014

NOTE: "FAIR" INDICATES FEW OR NO CLOUDS BELOW 12,000 FEET WITH NO
SIGNIFICANT WEATHER AND/OR OBSTRUCTIONS TO VISIBILITY.

* - THESE STATIONS ARE NOT NWS STATIONS...THUS NOT UNDER NWS
QUALITY CONTROL.  THEY ALSO DO NOT REPORT WEATHER SUCH
AS PRECIPITATION OR FOG.

IAZ001>003-012>014-020>022-031>034-043>046-211600-
   NORTHWEST IOWA

CITY           SKY/WX    TMP DP  RH WIND       PRES   REMARKS
CARROLL *      SUNNY     63  59  88 W7        29.96R
CHEROKEE *     PTSUNNY   64  48  55 N18G30    30.00R
DENISON *      SUNNY     63  61  94 NW13      29.96S
LE MARS *      SUNNY     63  39  42 N20       30.04S
ORANGE CITY *  SUNNY     64  30  27 N16G26    30.03F
SHELDON *      SUNNY     66  32  28 N24G33    30.02S
SIOUX CITY     PTSUNNY   66  38  35 N18G30    30.03S
SPENCER        PTSUNNY   61  48  62 N16       30.01R
STORM LAKE *   SUNNY     61  55  82 N18G28    29.98S
$$

IAZ055>058-069>071-079>083-090>094-211600-
   SOUTHWEST IOWA

CITY           SKY/WX    TMP DP  RH WIND       PRES   REMARKS
ATLANTIC *     MOSUNNY   63  59  88 W6        29.96S FOG
AUDUBON *      SUNNY     61  55  82 NW5       29.97S
CLARINDA *     CLOUDY    61  59  94 SW5       29.97F
COUNCIL BLFS * MOSUNNY   63  61  94 N13       29.97R
CRESTON *      PTSUNNY   61  59  94 SW8       29.95F FOG
HARLAN  *      MOSUNNY   64  59  82 NW13      30.00S
LAMONI         HVY RAIN  60  57  89 W7        29.98R VSB 1
RED OAK *      MOSUNNY   63  59  88 W6        29.97R
SHENANDOAH *   PTSUNNY   64  61  88 W9        29.98R
$$

IAZ047>049-059>061-072>074-084-211600-
   CENTRAL IOWA

CITY           SKY/WX    TMP DP  RH WIND       PRES   REMARKS
AMES           CLOUDY    64  57  78 W6        29.95R
ANKENY *       SUNNY     64  59  82 S8        29.92F
CHARITON *     CLOUDY    61  59  94 SW5       29.96S FOG
DES MOINES     LGT RAIN  65  57  75 SW9       29.93F
GRINNELL*      CLOUDY    64  59  82 S13       29.93F
KNOXVILLE *    MOSUNNY   63  59  88 S8        29.95F
MARSHALLTOWN   CLOUDY    65  58  78 W9        29.93S
NEWTON *       MOSUNNY   68  59  73 S15       29.93F
PELLA *        PTSUNNY   63  61  94 S9        29.96S FOG
PERRY *        PTSUNNY   64  57  77 W9        29.96R
$$

IAZ004>006-015-016-023>025-035-036-211600-
   NORTH CENTRAL IOWA

CITY           SKY/WX    TMP DP  RH WIND       PRES   REMARKS
ALGONA *       CLOUDY    63  57  82 N15       29.95S
CLARION *      CLOUDY    59  59 100 E6        29.95S
ESTHERVILLE    PTSUNNY   60  57  89 N20       29.98R FOG
FORT DODGE *   CLOUDY    63  57  82 W10       29.96S
MASON CITY     CLOUDY    59  57  93 CALM      29.95F
FOREST CITY *  CLOUDY    59  59 100 CALM      29.93F
IOWA FALLS *     N/A     63  57  82 NW5       29.96F
$$

IAZ007>011-017>019-026>030-037>042-050>054-066-211600-
   NORTHEAST IOWA

CITY           SKY/WX    TMP DP  RH WIND       PRES   REMARKS
CEDAR RAPIDS   LGT RAIN  61  58  90 W8        29.92S
CHARLES CITY * CLOUDY    57  57 100 CALM      29.94F FOG
CLINTON *      CLOUDY    63  52  67 W9        29.98R
DECORAH *      LGT RAIN  57  57 100 CALM      29.93F
DUBUQUE        CLOUDY    60  53  77 NW5       29.93R
MONTICELLO *   DRIZZLE   61  57  88 W7        29.92S
OELWEIN *      RAIN     N/A N/A N/A NW6       29.95S
WATERLOO       LGT RAIN  58  56  93 W7        29.94S FOG
$$

IAZ064-065-067-068-078-211600-
   EAST CENTRAL IOWA

CITY           SKY/WX    TMP DP  RH WIND       PRES   REMARKS
DAVENPORT      LGT RAIN  61  56  83 W7        29.95R
IOWA CITY      CLOUDY    63  59  87 W6        29.95S
MT. PLEASANT * CLOUDY    68  55  64 SW7       29.96S
MUSCATINE *    CLOUDY    64  59  82 W7        29.94F
QUAD CITIES    LGT RAIN  61  56  83 W5        29.94R
$$

IAZ062-063-075>077-085>089-095>099-211600-
   SOUTHEAST IOWA

CITY           SKY/WX    TMP DP  RH WIND       PRES   REMARKS
BURLINGTON     CLOUDY    67  55  65 SW8       29.95F
FAIRFIELD *    CLOUDY    66  57  72 W8        29.96S
FORT MADISON * MOSUNNY   64  55  72 SW3       29.97S
KEOKUK *       PTSUNNY   66  57  72 W9        29.96S
OSKALOOSA *    LGT RAIN  63  61  94 W9        29.97R
CENTERVILLE *  LGT RAIN  61  61 100 SW7       29.99S
OTTUMWA        LGT RAIN  62  58  86 W8        29.96S FOG
WASHINGTON *     N/A     66  59  77 W10       29.95S
$$

ABBREVIATIONS USED IN REMARKS
   TC - TEMPERATURES IN CELSIUS
  WCI - WIND CHILL INDEX
   HX - HEAT INDEX
  VSB - VISIBILITY
$$




USA.gov is the U.S. government's official web portal to all federal, state and local government web resources and services.